Weather History for Phoenix, AZ

Change the Weather History Date:

Sunday, August 10, 2014

  Actual Average Record
Temperature  
Mean Temperature 94 °F 94 °F  
Max Temperature 104 °F 105 °F 116 °F (2003)
Min Temperature 84 °F 83 °F 68 °F (1949)
Degree Days  
Heating Degree Days 0 0  
Month to date heating degree days 0 0  
Since 1 June heating degree days 0 0  
Since 1 July heating degree days 0 0  
Cooling Degree Days 29 29  
Month to date cooling degree days 281 290  
Year to date cooling degree days 3195 2874  
Since 1 June cooling degree days 2120 1988  
Growing Degree Days 44 (Base 50)    
Moisture  
Dew Point 58 °F    
Average Humidity 35    
Maximum Humidity 51    
Minimum Humidity 19    
Precipitation  
Precipitation 0.00 in 0.04 in 0.32 in (1958)
Month to date precipitation T 0.35  
Year to date precipitation 1.05 4.63  
Snow  
Snow 0.00 in - - ()
Month to date snowfall 0.0  
Year to date snowfall 0.0  
Since 1 July snowfall 0.0  
Snow Depth 0.00 in    
Sea Level Pressure  
Sea Level Pressure 29.83 in    
Wind  
Wind Speed 8 mph (SSE)    
Max Wind Speed 20 mph    
Max Gust Speed 26 mph    
Visibility 10 miles    
Events      
T = Trace of Precipitation, MM = Missing Value Source: NWS Daily Summary

Daily Weather History Graph

Daily Weather History Graph

Search for Another Location

Airport:

Trip Planner

Search our weather history database for the weather conditions in past years. The results will help you decide how hot, cold, wet, or windy it might be!

Date:

Astronomy

Aug. 10, 2014 Rise Set
Actual Time 5:47 AM MST 7:19 PM MST
Civil Twilight 5:20 AM MST 7:45 PM MST
Nautical Twilight 4:48 AM MST 8:17 PM MST
Astronomical Twilight 4:15 AM MST 8:50 PM MST
Moon 7:13 PM MST (8/10) 5:41 AM MST (8/10)
Length of Visible Light 14h 25m
Length of Day
13h 32m
Full, 100% of the Moon is Illuminated
Aug 10
Full
Aug 17
Last Quarter
Aug 25
New
Sep 2
First Quarter
Sep 8
Full

Hourly Weather History & Observations

Time (MST) Temp. Heat Index Dew Point Humidity Pressure Visibility Wind Dir Wind Speed Gust Speed Precip Events Conditions
12:51 AM 89.1 °F 90.3 °F 64.0 °F 43% 29.84 in 10.0 mi South 8.1 mph - N/A   Scattered Clouds
1:51 AM 86.0 °F 87.6 °F 64.9 °F 49% 29.85 in 10.0 mi SE 13.8 mph - N/A   Scattered Clouds
2:51 AM 84.9 °F 86.6 °F 64.9 °F 51% 29.86 in 10.0 mi SE 11.5 mph - N/A   Scattered Clouds
3:51 AM 84.0 °F 85.4 °F 64.0 °F 51% 29.86 in 10.0 mi ESE 8.1 mph - N/A   Partly Cloudy
4:51 AM 84.0 °F 84.5 °F 62.1 °F 47% 29.86 in 10.0 mi East 5.8 mph - N/A   Partly Cloudy
5:51 AM 84.0 °F 84.5 °F 62.1 °F 47% 29.86 in 10.0 mi East 3.5 mph - N/A   Scattered Clouds
6:51 AM 84.2 °F 85.0 °F 62.6 °F 48% 29.94 in 10.0 mi ESE 3.5 mph - N/A   Scattered Clouds
7:51 AM 89.1 °F 89.0 °F 61.0 °F 39% 29.89 in 10.0 mi ESE 4.6 mph - N/A   Mostly Cloudy
8:51 AM 90.0 °F 89.1 °F 59.0 °F 35% 29.89 in 10.0 mi WSW 3.5 mph - N/A   Partly Cloudy
9:51 AM 93.0 °F 92.3 °F 59.0 °F 32% 29.89 in 10.0 mi Calm Calm - N/A   Clear
10:51 AM 97.0 °F 95.3 °F 55.9 °F 25% 29.88 in 10.0 mi SSW 8.1 mph - N/A   Partly Cloudy
11:51 AM 96.1 °F 94.5 °F 55.9 °F 26% 29.87 in 10.0 mi WNW 4.6 mph - N/A   Partly Cloudy
12:51 PM 99.0 °F 97.3 °F 55.0 °F 23% 29.85 in 10.0 mi West 8.1 mph - N/A   Partly Cloudy
1:51 PM 100.9 °F 98.7 °F 53.1 °F 20% 29.82 in 10.0 mi West 5.8 mph - N/A   Partly Cloudy
2:51 PM 102.0 °F 100.6 °F 55.0 °F 21% 29.78 in 10.0 mi NW 11.5 mph - N/A   Partly Cloudy
3:51 PM 102.9 °F 101.4 °F 54.0 °F 20% 29.75 in 10.0 mi North 9.2 mph - N/A   Partly Cloudy
4:51 PM 104.0 °F 102.3 °F 53.6 °F 19% 29.80 in 10.0 mi West 11.5 mph 17.3 mph N/A   Partly Cloudy
5:51 PM 102.9 °F 101.4 °F 54.0 °F 20% 29.73 in 10.0 mi WSW 9.2 mph - N/A   Partly Cloudy
6:51 PM 102.9 °F 100.9 °F 53.1 °F 19% 29.74 in 10.0 mi WNW 8.1 mph 18.4 mph N/A   Scattered Clouds
7:51 PM 102.0 °F 99.7 °F 53.1 °F 19% 29.76 in 10.0 mi NE 8.1 mph - N/A   Mostly Cloudy
8:51 PM 100.9 °F 99.1 °F 54.0 °F 21% 29.79 in 10.0 mi ENE 10.4 mph 19.6 mph N/A   Mostly Cloudy
10:51 PM 91.0 °F 90.5 °F 60.1 °F 35% 29.82 in 10.0 mi ESE 9.2 mph - N/A   Mostly Cloudy
11:51 PM 91.0 °F 90.2 °F 59.0 °F 34% 29.83 in 10.0 mi ESE 6.9 mph - N/A   Mostly Cloudy